GW0912 Weather Reports


time (UTC)temp
F
wind
direction
speed
knots
gust
knots
rain 1hr
in
rain 24hr
in
rain mn
in
humidity
%
barometer
mb
20260906113352 73 270 0.0 0.0 0.00 0.00 0.00 99 1013.7
20260906112848 73 270 0.0 0.0 0.00 0.00 0.00 99 1013.5
20260906112344 73 270 0.0 0.0 0.00 0.00 0.00 99 1013.7
20260906111844 73 270 0.0 0.0 0.00 0.00 0.00 99 1013.7
20260906111343 73 270 0.0 0.0 0.00 0.00 0.00 99 1013.6
20260906110838 73 270 0.0 0.0 0.00 0.00 0.00 99 1013.5
20260906110335 73 270 0.0 0.0 0.00 0.00 0.00 98 1013.4
20260906105833 73 270 0.0 0.0 0.00 0.00 0.00 99 1013.3
20260906105329 73 270 0.0 0.0 0.00 0.00 0.00 99 1013.2
20260906104825 73 270 0.0 0.0 0.00 0.00 0.00 99 1013.2
20260906104323 73 270 0.0 0.0 0.00 0.00 0.00 99 1013.1
20260906103821 73 270 0.0 0.0 0.00 0.00 0.00 99 1013.2
20260906103315 73 240 0.0 0.9 0.00 0.00 0.00 99 1013.1
20260906102811 73 344 0.0 0.0 0.00 0.00 0.00 99 1013.2
20260906102310 73 344 0.0 0.0 0.00 0.00 0.00 99 1013.2
20260906101805 73 261 0.0 0.9 0.00 0.00 0.00 99 1013.2
20260906101300 73 279 0.0 0.9 0.00 0.00 0.00 99 1013.2
20260906100756 74 180 0.0 0.0 0.00 0.00 0.00 99 1012.9
20260906100254 74 90 0.0 0.0 0.00 0.00 0.00 99 1012.9
20260906095750 74 279 0.0 0.0 0.00 0.00 0.00 99 1012.8
20260906095245 74 279 0.0 0.0 0.00 0.00 0.00 99 1012.7
20260906094744 74 279 0.0 0.0 0.00 0.00 0.00 99 1012.9
20260906094240 74 325 0.0 0.0 0.00 0.00 0.00 99 1012.7
20260906093736 74 279 0.0 0.0 0.00 0.00 0.00 99 1012.6
20260906093231 74 270 0.0 0.0 0.00 0.00 0.00 99 1012.6
20260906092726 74 319 0.0 1.7 0.00 0.00 0.00 99 1012.4
20260906092220 75 279 0.0 1.7 0.00 0.00 0.00 99 1012.5
20260906091717 75 315 0.0 1.7 0.00 0.00 0.00 99 1012.5
20260906091213 75 306 0.0 0.9 0.00 0.00 0.00 99 1012.4
20260906090709 75 270 0.0 0.0 0.00 0.00 0.00 99 1012.5
20260906090208 75 270 0.0 0.9 0.00 0.00 0.00 99 1012.5
20260906085707 75 270 0.0 0.9 0.00 0.00 0.00 99 1012.5
20260906085206 75 270 0.0 1.7 0.00 0.00 0.00 99 1012.4
20260906084701 75 261 0.0 0.9 0.00 0.00 0.00 98 1012.6
20260906084201 75 157 0.0 0.0 0.00 0.00 0.00 98 1012.4
20260906083656 75 246 0.0 1.7 0.00 0.00 0.00 98 1012.7
20260906083151 75 166 0.0 2.6 0.00 0.00 0.00 98 1012.5
20260906082646 75 345 0.0 0.0 0.00 0.00 0.00 98 1012.5
20260906082141 75 286 0.0 0.0 0.00 0.00 0.00 98 1012.3
20260906081638 75 270 1.7 1.7 0.00 0.00 0.00 98 1012.5
20260906081132 75 270 0.9 1.7 0.00 0.00 0.00 98 1012.5
20260906080629 75 270 0.0 0.9 0.00 0.00 0.00 98 1012.6
20260906080125 75 270 0.0 0.0 0.00 0.00 0.00 98 1012.5
20260906075624 75 270 0.0 0.0 0.00 0.00 0.00 98 1012.5
20260906075119 75 255 0.0 0.0 0.00 0.00 0.00 98 1012.5
20260906074614 75 254 0.0 0.9 0.00 0.00 0.00 98 1012.8
20260906074113 75 270 0.9 1.7 0.00 0.00 0.00 98 1012.6
20260906073608 76 278 0.9 1.7 0.00 0.00 0.00 98 1012.5
20260906073104 75 270 0.0 0.9 0.00 0.00 0.00 98 1012.6
20260906072558 75 270 0.0 0.9 0.00 0.00 0.00 98 1012.7
20260906072055 75 270 0.0 0.9 0.00 0.00 0.00 98 1012.6
20260906071551 75 255 0.0 0.9 0.00 0.00 0.00 98 1012.8
20260906071045 76 270 0.0 1.7 0.00 0.00 0.00 98 1013.1
20260906070542 76 270 0.9 1.7 0.00 0.00 0.00 98 1013.0
20260906070037 76 270 0.0 0.0 0.00 0.00 0.00 98 1012.9
20260906065537 76 286 0.0 0.9 0.00 0.00 0.00 97 1013.2
20260906065033 76 279 0.0 0.0 0.00 0.00 0.00 97 1013.1
20260906064528 76 270 0.0 0.0 0.00 0.00 0.00 97 1013.1
20260906064023 76 270 0.0 0.0 0.00 0.00 0.00 97 1013.2
20260906063518 76 279 0.0 0.9 0.00 0.00 0.00 97 1013.1
20260906063014 76 270 0.0 0.0 0.00 0.00 0.00 98 1013.1
20260906062509 76 249 0.9 1.7 0.00 0.00 0.00 98 1013.2
20260906062003 76 270 0.0 0.0 0.00 0.00 0.00 98 1013.3
20260906061459 77 279 0.0 1.7 0.00 0.00 0.00 98 1013.3
20260906060953 77 270 0.0 0.9 0.00 0.00 0.00 98 1013.3
20260906060450 77 270 0.0 0.0 0.00 0.00 0.00 98 1013.4
20260906055947 77 255 0.0 0.9 0.00 0.00 0.00 98 1013.5
20260906055442 77 286 0.0 0.0 0.00 0.00 0.00 98 1013.5
20260906054938 77 286 0.0 0.0 0.00 0.00 0.00 97 1013.3
20260906054432 77 340 0.0 0.0 0.00 0.00 0.00 97 1013.2
20260906053928 77 270 0.0 0.0 0.00 0.00 0.00 97 1013.5
20260906053424 77 270 0.0 0.0 0.00 0.00 0.00 97 1013.5
20260906052920 77 270 0.0 0.9 0.00 0.00 0.00 97 1013.3
20260906052416 77 270 0.0 0.0 0.00 0.00 0.00 97 1013.4
20260906051912 77 270 0.0 0.0 0.00 0.00 0.00 97 1013.4
20260906051412 78 270 0.0 0.0 0.00 0.00 0.00 97 1013.4
20260906050908 78 270 0.0 0.0 0.00 0.00 0.00 97 1013.5
20260906050403 78 270 0.0 0.0 0.00 0.00 0.00 97 1013.6
20260906045901 78 278 0.0 0.0 0.00 0.00 0.00 97 1013.6
20260906045355 78 278 0.0 0.0 0.00 0.00 0.00 97 1013.5
20260906044851 78 278 0.0 0.0 0.00 0.00 0.00 96 1013.9
20260906044346 79 270 0.0 0.9 0.00 0.00 0.00 95 1013.9
20260906043842 79 270 0.0 0.0 0.00 0.00 0.00 95 1014.0
20260906043338 79 270 0.0 0.0 0.00 0.00 0.00 95 1013.9
20260906042833 79 270 0.0 0.0 0.00 0.00 0.00 96 1014.1
20260906042331 79 286 0.0 0.9 0.00 0.00 0.00 96 1014.0
20260906041827 80 294 0.0 0.9 0.00 0.00 0.00 98 1014.0
20260906041323 81 262 0.0 0.9 0.00 0.00 0.00 98 1014.0
20260906040822 81 353 0.0 1.7 0.00 0.00 0.00 98 1014.2
20260906040317 81 278 0.0 1.7 0.00 0.00 0.00 97 1014.0
20260906035813 81 270 0.0 0.9 0.00 0.00 0.00 97 1014.0
20260906035308 81 294 0.0 0.9 0.00 0.00 0.00 97 1014.1
20260906034804 82 286 0.0 0.9 0.00 0.00 0.00 97 1013.8
20260906034304 82 285 0.0 0.0 0.00 0.00 0.00 97 1013.7
20260906033800 82 279 0.0 0.9 0.00 0.00 0.00 97 1013.8
20260906033259 82 294 0.0 1.7 0.00 0.00 0.00 97 1013.6
20260906032755 82 279 0.0 0.9 0.00 0.00 0.00 97 1013.9
20260906032250 82 6 0.9 0.9 0.00 0.00 0.00 97 1013.6
20260906031745 82 278 0.0 0.0 0.00 0.00 0.00 97 1013.9
20260906031241 82 270 0.0 0.9 0.00 0.00 0.00 97 1013.9
20260906030741 82 279 0.0 0.0 0.00 0.00 0.00 97 1013.7
20260906030236 82 279 0.0 1.7 0.00 0.00 0.00 97 1013.7
20260906025735 82 270 0.0 0.9 0.00 0.00 0.00 97 1013.9
20260906025230 82 279 0.9 1.7 0.00 0.00 0.00 97 1013.7
20260906024729 82 285 0.0 1.7 0.00 0.00 0.00 96 1013.6
20260906024228 82 234 0.0 1.7 0.00 0.00 0.00 96 1013.6
20260906023724 82 270 0.0 0.9 0.00 0.00 0.00 96 1013.5
20260906023219 83 278 0.0 1.7 0.00 0.00 0.00 96 1013.5
20260906022714 83 270 0.0 0.0 0.00 0.00 0.00 95 1013.4
20260906022210 83 270 0.0 1.7 0.00 0.00 0.00 95 1013.6
20260906021705 83 277 0.0 1.7 0.00 0.00 0.00 94 1013.0
20260906021203 83 206 0.0 4.3 0.00 0.00 0.00 94 1012.8
20260906020653 83 235 0.0 2.6 0.00 0.00 0.00 94 1012.7
20260906020148 83 222 2.6 3.5 0.00 0.00 0.00 94 1013.2
20260906015642 83 255 0.0 1.7 0.00 0.00 0.00 94 1013.3
20260906015140 83 0 0.0 1.7 0.00 0.00 0.00 94 1013.3
20260906014635 83 350 1.7 1.7 0.00 0.00 0.00 93 1012.8
20260906014131 83 94 1.7 4.3 0.00 0.00 0.00 93 1012.6
20260906013626 83 0 0.0 5.2 0.00 0.00 0.00 93 1011.9
20260906013122 83 349 2.6 3.5 0.00 0.00 0.00 93 1011.5
20260906012617 83 246 0.0 3.5 0.00 0.00 0.00 93 1012.1
20260906012117 83 210 0.0 1.7 0.00 0.00 0.00 93 1012.3
20260906011612 83 220 0.0 0.0 0.00 0.00 0.00 93 1012.7
20260906011107 83 99 0.0 0.9 0.00 0.00 0.00 93 1012.9
20260906010602 83 344 1.7 1.7 0.00 0.00 0.00 94 1013.4
20260906010058 83 279 0.0 0.9 0.00 0.00 0.00 94 1013.3
20260906005558 83 294 0.0 0.9 0.00 0.00 0.00 93 1013.1
20260906005057 83 294 0.0 1.7 0.00 0.00 0.00 93 1013.2
20260906004556 83 286 0.0 0.9 0.00 0.00 0.00 92 1013.3
20260906004051 84 278 0.0 1.7 0.00 0.00 0.00 92 1013.2
20260906003546 84 173 0.9 4.3 0.00 0.00 0.00 91 1013.4
20260906003042 84 188 0.0 4.3 0.00 0.00 0.00 91 1013.5
20260906002537 84 254 0.0 4.3 0.00 0.00 0.00 92 1013.5
20260906002031 84 270 0.0 0.9 0.00 0.00 0.00 91 1013.4
20260906001527 84 276 1.7 1.7 0.00 0.00 0.00 91 1013.3
20260906001021 84 195 0.0 0.9 0.00 0.00 0.00 91 1013.7
20260906000517 84 245 0.0 4.3 0.00 0.00 0.00 90 1013.7
20260906000012 85 154 0.0 1.7 0.00 0.00 0.00 89 1013.8
20260905235506 85 79 0.0 1.7 0.00 0.00 0.00 89 1013.8
20260905235001 85 238 0.0 2.6 0.00 0.00 0.00 89 1013.6
20260905234456 85 270 0.0 0.9 0.00 0.00 0.00 88 1013.2
20260905233950 85 241 0.0 3.5 0.00 0.00 0.00 88 1013.4
20260905233446 85 253 0.0 6.1 0.00 0.00 0.00 88 1013.6
20260905232944 85 25 2.6 2.6 0.00 0.00 0.00 88 1013.5
20260905232441 86 180 0.0 2.6 0.00 0.00 0.00 88 1013.5
20260905231936 86 203 2.6 2.6 0.00 0.00 0.00 88 1013.5
20260905231432 86 168 0.0 0.9 0.00 0.00 0.00 87 1013.5
20260905230928 87 20 0.0 1.7 0.00 0.00 0.00 86 1013.2
20260905230427 87 129 0.0 2.6 0.00 0.00 0.00 86 1013.3
20260905225925 87 107 1.7 7.0 0.00 0.00 0.00 85 1013.2
20260905225420 87 103 0.0 2.6 0.00 0.00 0.00 85 1013.1
20260905224915 87 203 0.0 2.6 0.00 0.00 0.00 85 1013.3
20260905224411 88 131 1.7 1.7 0.00 0.00 0.00 84 1013.4
20260905223905 88 204 0.0 6.1 0.00 0.00 0.00 83 1013.4
20260905223404 88 141 0.0 4.3 0.00 0.00 0.00 83 1013.2
20260905222903 89 206 0.0 2.6 0.00 0.00 0.00 83 1012.9
20260905222403 89 191 0.0 4.3 0.00 0.00 0.00 82 1013.0
20260905221858 90 192 0.0 3.5 0.00 0.00 0.00 81 1012.8
20260905221355 90 246 0.0 4.3 0.00 0.00 0.00 81 1013.0
20260905220850 91 114 1.7 2.6 0.00 0.00 0.00 80 1013.0
20260905220347 91 90 0.0 2.6 0.00 0.00 0.00 79 1013.0
20260905215846 91 145 0.9 4.3 0.00 0.00 0.00 79 1012.9
20260905215342 90 26 2.6 4.3 0.00 0.00 0.00 80 1012.9
20260905214838 90 95 0.0 2.6 0.00 0.00 0.00 81 1013.0
20260905214333 91 90 0.0 4.3 0.00 0.00 0.00 81 1012.9
20260905213827 90 63 2.6 4.3 0.00 0.00 0.00 81 1013.0
20260905213324 91 90 0.0 2.6 0.00 0.00 0.00 81 1012.9
20260905212819 90 164 2.6 4.3 0.00 0.00 0.00 82 1013.1
20260905212318 90 209 1.7 3.5 0.00 0.00 0.00 82 1013.0
20260905211813 90 267 0.0 4.3 0.00 0.00 0.00 82 1012.9
20260905211308 90 110 2.6 4.3 0.00 0.00 0.00 82 1012.7
20260905210805 90 101 3.5 5.2 0.00 0.00 0.00 82 1012.7
20260905210304 91 140 4.3 5.2 0.00 0.00 0.00 80 1012.7
20260905205803 91 114 0.9 4.3 0.00 0.00 0.00 82 1012.6
20260905205258 91 247 2.6 5.2 0.00 0.00 0.00 81 1012.4
20260905204757 91 270 0.0 6.1 0.00 0.00 0.00 80 1012.6
20260905204254 92 4 1.7 3.5 0.00 0.00 0.00 79 1012.5
20260905203752 92 135 0.0 3.5 0.00 0.00 0.00 80 1012.3
20260905203248 92 99 0.9 3.5 0.00 0.00 0.00 78 1012.2
20260905202743 92 300 1.7 3.5 0.00 0.00 0.00 78 1012.3
20260905202238 94 75 2.6 2.6 0.00 0.00 0.00 76 1012.4
20260905201734 94 341 0.0 3.5 0.00 0.00 0.00 74 1012.3
20260905201229 93 83 0.0 2.6 0.00 0.00 0.00 76 1012.4
20260905200724 92 344 1.7 3.5 0.00 0.00 0.00 78 1012.6
20260905200220 92 172 0.0 1.7 0.00 0.00 0.00 78 1012.4
20260905195718 91 75 0.9 4.3 0.00 0.00 0.00 79 1012.4
20260905195212 90 147 0.0 3.5 0.00 0.00 0.00 81 1012.7
20260905194708 91 131 1.7 4.3 0.00 0.00 0.00 79 1012.7
20260905194208 92 74 1.7 3.5 0.00 0.00 0.00 77 1012.8
20260905193702 93 53 2.6 4.3 0.00 0.00 0.00 75 1012.6
20260905193157 92 84 2.6 7.0 0.00 0.00 0.00 77 1012.7
20260905192653 92 127 2.6 3.5 0.00 0.00 0.00 76 1012.7
20260905192149 91 71 1.7 3.5 0.00 0.00 0.00 78 1012.9
20260905191648 91 99 0.0 2.6 0.00 0.00 0.00 79 1013.2
20260905191146 92 72 2.6 5.2 0.00 0.00 0.00 77 1013.2
20260905190645 91 251 0.0 4.3 0.00 0.00 0.00 77 1013.4
20260905190144 93 90 0.0 3.5 0.00 0.00 0.00 74 1013.5
20260905185643 95 108 0.0 5.2 0.00 0.00 0.00 72 1013.6
20260905185138 97 264 1.7 3.5 0.00 0.00 0.00 70 1013.7
20260905184632 95 248 2.6 3.5 0.00 0.00 0.00 72 1013.7
20260905184131 94 112 2.6 8.7 0.00 0.00 0.00 74 1013.6
20260905183630 96 309 1.7 2.6 0.00 0.00 0.00 70 1013.7
20260905183126 95 331 1.7 6.1 0.00 0.00 0.00 72 1013.8
20260905182625 96 261 0.0 2.6 0.00 0.00 0.00 67 1013.9
20260905182125 97 270 0.0 1.7 0.00 0.00 0.00 67 1014.0
20260905181620 94 82 0.0 3.5 0.00 0.00 0.00 70 1014.3
20260905181119 94 266 0.0 2.6 0.00 0.00 0.00 70 1014.0
20260905180614 91 270 0.9 3.5 0.00 0.00 0.00 73 1014.3
20260905180109 93 131 1.7 3.5 0.00 0.00 0.00 74 1014.2
20260905175609 95 148 1.7 3.5 0.00 0.00 0.00 70 1014.2
20260905175104 95 251 1.7 3.5 0.00 0.00 0.00 69 1014.4
20260905174600 96 145 0.0 3.5 0.00 0.00 0.00 67 1014.2
20260905174055 96 72 2.6 3.5 0.00 0.00 0.00 66 1014.5
20260905173551 95 126 1.7 4.3 0.00 0.00 0.00 68 1014.7
20260905173047 95 95 0.0 1.7 0.00 0.00 0.00 68 1014.6
20260905172545 94 270 0.0 0.0 0.00 0.00 0.00 71 1014.8
20260905172040 95 12 0.0 1.7 0.00 0.00 0.00 69 1014.9
20260905171537 93 343 1.7 2.6 0.00 0.00 0.00 70 1014.9
20260905171033 94 264 1.7 1.7 0.00 0.00 0.00 72 1014.9
20260905170529 94 14 0.0 2.6 0.00 0.00 0.00 71 1015.1
20260905170024 91 279 0.0 1.7 0.00 0.00 0.00 72 1015.0
20260905165519 93 294 0.0 2.6 0.00 0.00 0.00 71 1015.2
20260905165014 93 32 1.7 2.6 0.00 0.00 0.00 70 1015.2
20260905164508 94 289 1.7 1.7 0.00 0.00 0.00 69 1015.3
20260905164003 93 11 0.0 1.7 0.00 0.00 0.00 73 1015.4
20260905163459 94 312 1.7 2.6 0.00 0.00 0.00 71 1015.6
20260905162954 93 202 3.5 3.5 0.00 0.00 0.00 71 1015.6
20260905162450 92 142 1.7 2.6 0.00 0.00 0.00 71 1015.8
20260905161945 92 237 0.0 1.7 0.00 0.00 0.00 74 1015.9
20260905161444 90 210 1.7 2.6 0.00 0.00 0.00 77 1016.1
20260905160942 91 341 1.7 2.6 0.00 0.00 0.00 74 1016.2
20260905160436 93 275 0.0 2.6 0.00 0.00 0.00 72 1016.1
20260905155935 94 30 2.6 2.6 0.00 0.00 0.00 73 1016.2
20260905155430 93 300 0.0 2.6 0.00 0.00 0.00 75 1016.2
20260905154929 90 246 0.0 1.7 0.00 0.00 0.00 76 1016.3
20260905154425 92 292 1.7 3.5 0.00 0.00 0.00 73 1016.3
20260905153920 91 194 0.0 3.5 0.00 0.00 0.00 74 1016.4
20260905153417 90 321 2.6 3.5 0.00 0.00 0.00 77 1016.5
20260905152916 91 283 0.0 3.5 0.00 0.00 0.00 77 1016.5
20260905152415 91 326 1.7 2.6 0.00 0.00 0.00 77 1016.4
20260905151910 88 85 1.7 1.7 0.00 0.00 0.00 80 1016.3
20260905151401 89 275 1.7 2.6 0.00 0.00 0.00 80 1016.5
20260905150900 90 270 0.0 1.7 0.00 0.00 0.00 78 1016.7
20260905150355 89 300 2.6 2.6 0.00 0.00 0.00 82 1016.6
20260905145852 87 261 0.9 2.6 0.00 0.00 0.00 83 1016.5
20260905145352 90 243 0.9 3.5 0.00 0.00 0.00 79 1016.6
20260905144846 89 0 0.9 2.6 0.00 0.00 0.00 80 1016.6
20260905144342 88 74 0.0 3.5 0.00 0.00 0.00 82 1016.6
20260905143839 87 8 0.0 1.7 0.00 0.00 0.00 82 1016.5
20260905143334 88 199 2.6 3.5 0.00 0.00 0.00 82 1016.6
20260905142834 87 259 0.0 0.0 0.00 0.00 0.00 84 1016.5
20260905142332 89 297 1.7 3.5 0.00 0.00 0.00 82 1016.5
20260905141829 88 340 0.9 1.7 0.00 0.00 0.00 84 1016.5
20260905141324 87 263 0.0 2.6 0.00 0.00 0.00 86 1016.5
20260905140820 86 352 0.0 3.5 0.00 0.00 0.00 87 1016.5
20260905140320 87 315 1.7 1.7 0.00 0.00 0.00 86 1016.5
20260905135818 87 270 0.9 1.7 0.00 0.00 0.00 87 1016.4
20260905135314 86 243 0.0 1.7 0.00 0.00 0.00 87 1016.6
20260905134809 86 270 0.0 1.7 0.00 0.00 0.00 88 1016.5
20260905134303 86 294 0.9 4.3 0.00 0.00 0.00 88 1016.7
20260905133757 85 306 0.9 2.6 0.00 0.00 0.00 89 1016.8
20260905133253 84 319 1.7 2.6 0.00 0.00 0.00 90 1016.8
20260905132751 84 297 1.7 2.6 0.00 0.00 0.00 90 1016.7
20260905132247 84 270 0.0 1.7 0.00 0.00 0.00 92 1016.7
20260905131742 84 291 0.9 2.6 0.00 0.00 0.00 93 1016.7
20260905131237 83 291 0.0 2.6 0.00 0.00 0.00 94 1016.8
20260905130732 83 295 0.0 2.6 0.00 0.00 0.00 94 1016.9
20260905130231 82 325 0.0 1.7 0.00 0.00 0.00 95 1016.8
20260905125727 82 337 0.0 1.7 0.00 0.00 0.00 96 1016.9
20260905125221 82 292 0.0 1.7 0.00 0.00 0.00 97 1016.9
20260905124718 81 254 0.0 1.7 0.00 0.00 0.00 98 1016.7
20260905124214 80 311 1.7 1.7 0.00 0.00 0.00 99 1016.6
20260905123708 80 278 0.9 2.6 0.00 0.00 0.00 99 1016.6
20260905123205 80 306 0.0 1.7 0.00 0.00 0.00 99 1016.5
20260905122705 79 270 0.9 2.6 0.00 0.00 0.00 99 1016.6
20260905122159 79 353 0.0 1.7 0.00 0.00 0.00 99 1016.7
20260905121654 79 286 0.0 2.6 0.00 0.00 0.00 99 1016.7
20260905121150 78 254 0.9 1.7 0.00 0.00 0.00 99 1016.8
20260905120649 78 285 0.0 0.9 0.00 0.00 0.00 99 1016.7
20260905120144 78 270 0.0 1.7 0.00 0.00 0.00 99 1016.7
20260905115644 78 325 0.9 0.9 0.00 0.00 0.00 99 1016.6
20260905115139 78 270 0.0 1.7 0.00 0.00 0.00 99 1016.7
20260905114638 78 294 0.0 0.9 0.00 0.00 0.00 99 1016.4
20260905114137 78 283 0.0 0.9 0.00 0.00 0.00 99 1016.3